Погода в Лаэ

Папуа-Новая Гвинея     6°42′40″S   146°58′15″E
темп.,
°C
ветер,
м/с
пор.,
м/с
влажн.,
%
обл.,
%
осадки,
мм/ч
давл.,
гПа
погр.,
м
6 марта, сб
сб601:00+24зсз3491100 14.7 1009180
04:00+24сз4693100 18.8 1008236
07:00+24сз5690100 1.1 1010229
10:00+29зсз2365100 1.3 1011495
13:00+29юв556983 0.4 1007499
16:00+28юв457191 0.8 1007646
19:00+26ююв128299 1.6 1009332
22:00+24сз449599 7.6 1011158
7 марта, вс
вс701:00+24зсз5693100 5.2 1010279
04:00+24сз5693100 18.0 1009270
07:00+24сз5792100 1.6 1011256
10:00+25сз4590100 3.4 1012260
13:00+30ссз1260100 0.1 1009670
16:00+28юв4568100 0.3 1008672
19:00+26ююв3480100 1.0 1010287
22:00+24зсз1192100 5.3 101277
8 марта, пн
пн801:00+23зсз3393100 3.4 1011148
04:00+24сз3492100 4.0 1010192
07:00+24зсз3390100 0.1 1012170
10:00+27зсз1179100 1.4 1012287
13:00+27вюв2374100 1.4 1010500
16:00+28вюв4570100 1.5 1009887
19:00+26юв247990 0.6 1011353
22:00+25ю128595 3.8 1013158
9 марта, вт
вт901:00+24сз238993 4.5 1011113
04:00+23ююз119596 13.2 1010115
07:00+23ссв1296100 25.4 1012149
10:00+23юз1295100 31.3 1013174
13:00+24ююв1191100 1.1 1011257
16:00+23юв2291100 1.9 1010230
19:00+23ссз0090100 0.9 101296
22:00+23сз2289100 1.0 1014130
10 марта, ср
ср1001:00+23сз3388100 0.0 1012165
04:00+23сз4590100 0.1 1011200
07:00+23зсз338791 0.0 1013164
10:00+29всв016390 0.0 1014604
13:00+28вюв4469100 0.0 1011598
16:00+27юв4471100 0.0 1009483
19:00+26вюв2479100 0.0 1012418
22:00+25ююв138195 0.3 1014442